SL-14 DEB, 45348

Orbit data source: Space-Track

SL-14 DEB, 45348 is space debris in LEO originally from a launch on Thu, 15 Aug 1991 UTC launched from the Plesetsk Missile And Space Complex (PKMTR). Debris objects in space refer to the collection of defunct objects orbiting the Earth. Examples of debris include non-operational satellites, rocket bodies, and fragments generated from explosions, collisions, or faulty payload assembly.

Loading next visibility...
Identifier
45348, 1991-056CH
Orbit
LEO
Country
Flag of CISCIS
Related business
Manufacturer
Unknown
Mission
Spacecraft
Bus & Motor
Unknown
Mass
Unknown
Launch date (UTC)
1991-08-15 (34 years ago)
Launch vehicle
Unknown
Launch site
Plesetsk Missile And Space Complex (PKMTR)
Object type
Payload
Rocket body
Debris
Shape & HBR
Unknown shape, 0.1 m
Radar Cross Section
Small (<0.1 m²)

Expand to show TLE details & history
Last TLE update: 2 days ago

TLE from 2 days ago
0 SL-14 DEB
1 45348U 91056CH  26034.79897006  .00000024  00000-0  27633-4 0  9997
2 45348  82.5634 230.0062 0021980  64.3664 295.9728 13.19261398285365
Epoch: 2026-02-03T19:10Z
TLE epoch observation values (Epoch: 2026-02-03T19:10:31.013Z)
Latitude
0.00008°
Longitude
168.40226°
Altitude
1,183.099 km
Speed
7.266 km/s
True Right ascension
15h 20m 01s
True Declination
0° 00' 00"
Sunlit
Object was in daylight at epoch
Visualization orbit readout
Latitude
Unknown
Longitude
Unknown
Altitude
Unknown
Speed
Unknown
Apparent Right ascension
Unknown
Apparent Declination
Unknown
Sunlit
N/A
Visualization observer readout
Local Sidereal Time
23:43:20
Azimuth
Unknown
Elevation
Unknown
Doppler factor
Unknown
Orbital elements
Apogee altitude
1,201.407 km
Perigee altitude
1,168.16 km
Semi-major axis
7,562.921 km
Eccentricity
0.0022
Inclination
82.5634°
RAAN
230.0062°
Arg. of periapsis
64.3664°
True anomaly
295.74609°
Mean anomaly
295.9728°
Eccentric anomaly
295.85947°
Mean motion
3.29996 °/min
Orbital period
109.09 mins
BSTAR
0.000027633
Loading maneuver chart data...
Computing Atmospheric mass density...
Loading historical data...
Loading historical data...
Loading historical data...
Loading historical data...
Loading historical data...
Loading historical data...
Loading historical data...

Documentation

Showing up to 5 results
|